This demonstration page uses our WeatherBlox Daily Observations layout. Learn more.

Left ArrowRight Arrow

38.88101, -77.10428

Hourly Observations for August 10, 2022

Temp ( °F °C ) Dew Point ( °F °C ) Humidity (%) Winds ( mph kmh ) Pressure ( in mb ) Visibility ( mi km ) Precip ( " mm )
12:04 am 00:04 Mostly Cloudy 81 27.2 72 22.2 74 74 N 3 6 30.01 1016 10 16 0.00 0.00
12:52 am 00:52 Mostly Cloudy 81 27.2 71 21.7 72 72 Calm 30.03 1017 10 16 0.00 0.00
1:52 am 01:52 Mostly Cloudy 80 26.7 72 22.2 76 76 NNW 5 7 30.03 1017 10 16 0.00 0.00
2:52 am 02:52 Mostly Cloudy 79 26.1 72 22.2 79 79 NW 5 7 30.02 1017 10 16 0.00 0.00
3:52 am 03:52 Mostly Cloudy 79 26.1 72 22.2 79 79 NNW 5 7 30.03 1017 10 16 0.00 0.00
4:52 am 04:52 Mostly Cloudy 78 25.6 72 22.2 82 82 NNW 6 9 30.03 1017 10 16 0.00 0.00
5:52 am 05:52 Partly Cloudy 79 26.1 72 22.2 79 79 NNW 3 6 30.04 1017 10 16 0.00 0.00
6:52 am 06:52 Partly Cloudy 79 26.1 72 22.2 79 79 N 5 7 30.06 1018 10 16 0.00 0.00
7:52 am 07:52 Mostly Sunny 82 27.8 74 23.3 77 77 N 3 6 30.06 1018 10 16 0.00 0.00
8:52 am 08:52 Partly Cloudy 85 29.4 74 23.3 70 70 N 6 9 30.08 1019 10 16 0.00 0.00
9:52 am 09:52 Partly Cloudy 87 30.6 73 22.8 63 63 E 3 6 30.08 1019 10 16 0.00 0.00
10:52 am 10:52 Mostly Cloudy 90 32.2 74 23.3 59 59 NNE 9 15 30.08 1019 10 16 0.00 0.00
11:52 am 11:52 Mostly Cloudy 91 32.8 75 23.9 60 60 N 8 13 30.06 1018 10 16 0.00 0.00
12:52 pm 12:52 Mostly Cloudy 89 31.7 74 23.3 61 61 N 12 19 30.06 1018 10 16 0.01 0.13
1:52 pm 13:52 Mostly Cloudy 91 32.8 76 24.4 61 61 NNE 8 13 30.03 1017 10 16 0.00 0.00
2:52 pm 14:52 Mostly Cloudy 91 32.8 73 22.8 56 56 NE 6 9 29.99 1016 10 16 0.00 0.00
3:58 pm 15:58 Mostly Cloudy with Thunderstorms 91 32.8 72 22.2 54 54 S 3 6 29.97 1015 10 16 0.00 0.00
4:18 pm 16:18 Windy with Storms Likely 83 28.3 73 22.8 72 72 SW 23 37 29.97 1015 10 16 0.01 0.13
4:27 pm 16:27 Mostly Cloudy with Thunderstorms 80 26.7 71 21.7 74 74 SW 25 41 29.97 1015 4 6 0.01 0.13
4:52 pm 16:52 Cloudy with Rain 77 25 71 21.7 82 82 NNW 10 17 30.00 1016 3 5 0.07 1.78
4:58 pm 16:58 Cloudy with Thunderstorms 76 24.4 72 22.2 88 88 WNW 12 19 30.01 1016 3 4 0.04 1.02
5:30 pm 17:30 Cloudy with Thunderstorms 76 24.4 72 22.2 88 88 SE 9 15 30.06 1018 4 6 0.16 4.06
5:49 pm 17:49 Cloudy with Thunderstorms 75 24 72 22 89 89 SSE 3 6 30.03 1017 2 3 0.23 5.84
5:52 pm 17:52 Cloudy with Thunderstorms 75 23.9 72 22.2 90 90 Calm 30.03 1017 3 4 0.24 6.10
6:07 pm 18:07 Cloudy with Nearby Thunderstorms 75 23.9 72 22.2 90 90 SW 6 9 30.03 1017 6 10 0.03 0.76
6:15 pm 18:15 Cloudy with Thunderstorms 75 23.9 72 22.2 90 90 SW 5 7 30.04 1017 5 8 0.05 1.27
6:43 pm 18:43 Cloudy with Light Rain 76 24.4 73 22.8 91 91 SE 9 15 30.04 1017 10 16 0.07 1.78
6:52 pm 18:52 Cloudy with Thunderstorms 76 24.4 73 22.8 91 91 S 8 13 30.05 1018 10 16 0.07 1.78
7:52 pm 19:52 Cloudy with Thunderstorms 74 23.3 71 21.7 91 91 SSW 7 11 30.02 1017 6 10 0.09 2.29
8:31 pm 20:31 Cloudy with Light Rain 74 23.3 71 21.7 91 91 WSW 6 9 30.02 1017 10 16 0.04 1.02
8:52 pm 20:52 Cloudy with Light Rain 74 23.3 71 21.7 91 91 SW 7 11 30.01 1016 10 16 0.05 1.27
9:52 pm 21:52 Cloudy 75 23.9 72 22.2 90 90 SW 7 11 30.01 1016 10 16 0.01 0.13
10:22 pm 22:22 Cloudy 74 23.3 71 21.7 91 91 SW 7 11 30.03 1017 10 16 0.00 0.00
10:52 pm 22:52 Cloudy 74 23.3 71 21.7 91 91 VRB 6 9 30.03 1017 10 16 0.00 0.00
11:05 pm 23:05 Cloudy 74 23.3 71 21.7 91 91 SSW 5 7 30.02 1017 10 16 0.00 0.00
11:52 pm 23:52 Cloudy 74 23.3 71 21.7 91 91 SW 7 11 30.02 1017 10 16 0.00 0.00

Powered by AerisWeather